CZ-6A DEB, 54400

Orbit data source: Space-Track

CZ-6A DEB, 54400 is space debris in SSO originally from a launch on Fri, 11 Nov 2022 UTC launched from the Taiyaun Space Center, China (TSC). Debris objects in space refer to the collection of defunct objects orbiting the Earth. Examples of debris include non-operational satellites, rocket bodies, and fragments generated from explosions, collisions, or faulty payload assembly.

Loading next visibility...
Identifier
54400, 2022-151DY
Orbit
SSO
Country
Flag of CNCN / PRC
Related business
Manufacturer
SAST
Mission
Spacecraft
Bus & Motor
Unknown
Mass
Unknown
Launch date (UTC)
2022-11-11 (3 years ago)
Launch vehicle
Unknown
Launch site
Taiyaun Space Center, China (TSC)
Object type
Payload
Rocket body
Debris
Shape & HBR
Unknown shape, 0.3 m
Radar Cross Section
Small (<0.1 m²)

Expand to show TLE details & history
Last TLE update: 16 hours ago

TLE from 16 hours ago
0 CZ-6A DEB
1 54400U 22151DY  25352.72979553  .00002471  00000-0  48463-3 0  9990
2 54400  98.6002  49.5888 0124304  73.0542 288.4239 14.58884533164171
Epoch: 2025-12-18T17:30Z
TLE epoch observation values (Epoch: 2025-12-18T17:30:54.333Z)
Latitude
-0.00001°
Longitude
59.2813°
Altitude
672.94 km
Speed
7.535 km/s
True Right ascension
03h 18m 21s
True Declination
0° 00' 00"
Sunlit
Object was in full shadow at epoch
Visualization orbit readout
Latitude
Unknown
Longitude
Unknown
Altitude
Unknown
Speed
Unknown
Apparent Right ascension
Unknown
Apparent Declination
Unknown
Sunlit
N/A
Visualization observer readout
Local Sidereal Time
08:04:30
Azimuth
Unknown
Elevation
Unknown
Doppler factor
Unknown
Orbital elements
Apogee altitude
781.787 km
Perigee altitude
605.971 km
Semi-major axis
7,072.016 km
Eccentricity
0.01243
Inclination
98.6002°
RAAN
49.5888°
Arg. of periapsis
73.0542°
True anomaly
287.06595°
Mean anomaly
288.4239°
Eccentric anomaly
287.74558°
Mean motion
3.64946 °/min
Orbital period
98.64 mins
BSTAR
0.00048463
Loading maneuver chart data...
Computing Atmospheric mass density...

Documentation

Showing up to 5 results
|